Regional Weather Roundup
Issued by NWS

Home | Current Version | Previous Version | Graphics & Text | Print | Product List | Glossary On
Versions: 1 2 3 4 5 6 7 8 9 10 11 12 13 14 15 16 17 18 19 20 21 22 23 24 25 26 27 28 29 30 31 32 33 34 35 36 37 38 39 40 41 42 43 44 45 46 47 48 49 50
000
ASUS45 KBOU 132007
RWRCO

WEATHER ROUNDUP FOR COLORADO
NATIONAL WEATHER SERVICE DENVER/BOULDER CO
100 PM MST SAT FEB 13 2016

NOTE: "FAIR" INDICATES FEW OR NO CLOUDS BELOW 12000 FEET WITH NO
SIGNIFICANT WEATHER AND/OR OBSTRUCTIONS TO VISIBILITY.

COZ001>005-013-030-031-132100-
...NORTHWEST COLORADO...

CITY           SKY/WX    TMP DP  RH WIND       PRES   REMARKS
CRAIG          MIX PCPN  29  19  66 CALM      30.21F
HAYDEN         FAIR      27  18  69 NW6       30.20S WCI  20
MEEKER         FAIR      41  25  53 NE3       30.19F
MOUNT WERNER   NOT AVBL
STEAMBOAT SPGS FAIR      31  21  66 CALM      30.18F
WALDEN         FAIR      41  14  33 SW20G26   30.15F
$$

COZ006>008-011-132100-
...WEST CENTRAL VALLEYS...

CITY           SKY/WX    TMP DP  RH WIND       PRES   REMARKS
GRAND JUNCTION FAIR      42  30  62 N3        30.23F
MONTROSE       FAIR      47  29  49 N8        30.22F
EAGLE          PTSUNNY   39  25  56 CALM      30.20F
RIFLE          FAIR      39  21  48 CALM      30.21F
DELTA          FAIR      50  32  49 SW5       30.21F
NUCLA          FAIR      50  28  43 NW7       30.25F
$$

COZ017>023-064>068-132100-
...SOUTHWEST COLORADO...

CITY           SKY/WX    TMP DP  RH WIND       PRES   REMARKS
DURANGO        FAIR      40  28  62 NE6       30.22F
CORTEZ         FAIR      53  30  41 S5        30.23F
PAGOSA SPRINGS FAIR      51  17  25 S12       30.23F
TELLURIDE      FAIR      50   7  18 CALM      30.30F
WOLF CREEK PAS FAIR      34  12  40 SW20G28   30.38F WCI  22
$$

COZ009-010-012-014-032>034-037-058>063-132100-
...CENTRAL COLORADO...

CITY           SKY/WX    TMP DP  RH WIND       PRES   REMARKS
ASPEN          FAIR      45  16  31 N10G18    30.19F
BUENA VISTA    FAIR      55  -1  10 SW23G46   30.12F
COPPER MTN     FAIR      36   0  21 NW16G35   30.27F
BERTHOUD PASS  FAIR      28  18  64 W46G63    30.19F WCI  10
COTTONWOOD PAS FAIR      46 -18   6 W30G51    30.15F
GUNNISON       FAIR      12   3  67 SE3       30.32F
KREMMLING      FAIR      23  10  58 S3        30.20F
LEADVILLE      FAIR      42   2  18 W15G30    30.19F
MONARCH PASS   FAIR      32   7  34 W46       30.38F WCI  15
SALIDA         NOT AVBL
SUNLIGHT       FAIR      37  16  41 CALM      30.31F
WILKERSON PASS FAIR      41   0  17 W13G23    30.23F
$$

COZ069>075-132100-
...SAN LUIS VALLEY/SANGRE DE CRISTO MOUNTAINS...

CITY           SKY/WX    TMP DP  RH WIND       PRES   REMARKS
ALAMOSA        FAIR      55  24  30 SW8       30.16F
LA VETA PASS   FAIR      45  18  33 SW10G24   30.20F
SAGUACHE       FAIR      46  23  39 S6        30.19F
$$

COZ035-036-038>040-132100-
...NORTHERN COLORADO FRONT RANGE...

CITY           SKY/WX    TMP DP  RH WIND       PRES   REMARKS
DENVER INTL AP PTSUNNY   53  31  42 CALM      29.97F
DMNS CITY PARK   N/A     57  32  38 NE15      29.94F
AURORA         PTSUNNY   62  21  20 N9        29.97F
FRONT RANGE AP PTSUNNY   50  28  43 W10       29.98F
ERIE MUNI ARPT FAIR      46  42  86 NE3       29.95F
BOULDER MUN AP FAIR      46  43  87 CALM      29.96F
CENTENNIAL     PTSUNNY   65  16  15 N10       29.96F
BROOMFIELD     PTSUNNY  N/A N/A N/A W28G33    29.98F
FORT COLLINS   PTSUNNY   34  30  86 SW3       29.98F
LONGMONT       FAIR      47  35  62 E5        29.98F
$$

COZ041-046-047-076>085-087-088-132100-
...PIKES PEAK/PALMER DIVIDE AND SOUTHERN FOOTHILLS...

CITY           SKY/WX    TMP DP  RH WIND       PRES   REMARKS
COLO. SPRINGS  FAIR      61  18  18 E5        30.00F
A. F. ACADEMY  FAIR      62   3   9 W20G30    30.00F
SCHRIEVER AFB  FAIR      59  21  23 S7G20     30.00F
ELLICOTT       LGT RAIN N/A N/A N/A SW10      29.99F
FALCON         FAIR      61  12  14 CALM      30.03F
FORT CARSON    FAIR      60  29  30 SE9       29.96F
LIMON          FAIR      40  34  79 CALM      29.98F
MONUMENT HILL  FAIR      50  21  32 S5        30.03F
TRINIDAD       FAIR      73   8   8 W16G23    30.01F
$$

COZ042>045-048>051-090-091-132100-
...NORTHEAST COLORADO...

CITY           SKY/WX    TMP DP  RH WIND       PRES   REMARKS
GREELEY ARPT   CLOUDY    34  30  86 CALM      30.00F
AKRON          PTSUNNY   34  33  96 SW10      29.96F WCI  26
BURLINGTON     CLOUDY    31  29  92 S12       30.01F WCI  22
WRAY           CLOUDY    35  30  83 S10       30.03F WCI  27
STERLING       CLOUDY    36  32  87 SW10      29.96F
HOLYOKE        CLOUDY    34  32  93 S7        30.01F WCI  28
FORT MORGAN    FOG       33  32  97 W7        29.99F VSB 3/4 WCI  26
$$

COZ086-089-092>099-132100-
...SOUTHEAST COLORADO...

CITY           SKY/WX    TMP DP  RH WIND       PRES   REMARKS
PUEBLO         FAIR      50  31  48 VRB3      29.96F
LA JUNTA       FAIR      43  31  62 SE6       29.99F
LAMAR          FAIR      40  30  67 SW6       30.01F
SPRINGFIELD      N/A     67  29  24 VRB3      29.96F
$$



USA.gov is the U.S. government's official web portal to all federal, state and local government web resources and services.